Regional Weather Roundup
Issued by NWS

Home | Current Version | Previous Version | Text Only | Print | Product List | Glossary On
Versions: 1 2 3 4 5 6 7 8 9 10 11 12 13 14 15 16 17 18 19 20 21 22 23 24 25 26 27 28 29 30 31 32 33 34 35 36 37 38 39 40 41 42 43 44 45 46 47 48 49 50
000
ASUS43 KDMX 282201
RWRIA

WEATHER ROUNDUP FOR IOWA
NATIONAL WEATHER SERVICE DES MOINES IA
500 PM CDT WED JUN 28 2017

NOTE: "FAIR" INDICATES FEW OR NO CLOUDS BELOW 12,000 FEET WITH NO
SIGNIFICANT WEATHER AND/OR OBSTRUCTIONS TO VISIBILITY.

* - THESE STATIONS ARE NOT NWS STATIONS...THUS NOT UNDER NWS
QUALITY CONTROL.  THEY ALSO DO NOT REPORT WEATHER SUCH
AS PRECIPITATION OR FOG.

IAZ001>003-012>014-020>022-031>034-043>046-282300-
   NORTHWEST IOWA

CITY           SKY/WX    TMP DP  RH WIND       PRES   REMARKS
CARROLL *      MOSUNNY   86  70  58 SW16G23   29.61F HX  90
CHEROKEE *     SUNNY     85  62  44 W14       29.62F HX  86
DENISON *      SUNNY     86  68  54 W15G22    29.64F HX  89
LE MARS *      SUNNY     86  63  45 W12       29.64S HX  87
ORANGE CITY *  MOSUNNY   84  64  51 NW12      29.64S HX  86
SHELDON *      SUNNY     84  64  51 W15       29.62S HX  86
SIOUX CITY     SUNNY     89  65  44 W10       29.62F HX  91
SPENCER        SUNNY     86  63  45 W15       29.62S HX  87
STORM LAKE *   SUNNY     84  68  58 W12G20    29.63F HX  87
$$

IAZ055>058-069>071-079>083-090>094-282300-
   SOUTHWEST IOWA

CITY           SKY/WX    TMP DP  RH WIND       PRES   REMARKS
ATLANTIC *     CLOUDY    86  73  66 SW15      29.63F HX  93
AUDUBON *      SUNNY     86  75  70 SW10G17   29.64F HX  95
CLARINDA *     CLOUDY    81  72  74 SE8G17    29.68S HX  84
COUNCIL BLFS * CLOUDY    88  70  55 W20G25    29.62F HX  92
CRESTON *      CLOUDY    79  72  78 S15       29.66F HX  82
HARLAN  *      MOSUNNY   88  70  55 W16G23    29.65F HX  92
LAMONI         MOSUNNY   83  71  67 S16G24    29.69F HX  87
RED OAK *      CLOUDY    79  72  78 S9G16     29.66R HX  82
SHENANDOAH *   HVY RAIN  73  70  88 NE8G15    29.66R
$$

IAZ047>049-059>061-072>074-084-282300-
   CENTRAL IOWA

CITY           SKY/WX    TMP DP  RH WIND       PRES   REMARKS
AMES           PTSUNNY   83  74  74 S16G23    29.62F HX  89
ANKENY *       DRIZZLE   81  72  74 S9G17     29.65F HX  84
BOONE *        PTSUNNY   81  72  74 S12G17    29.62F HX  84
CHARITON *     CLOUDY    84  72  65 S21G28    29.68F HX  89
DES MOINES     TSTM      80  72  76 S16G24    29.66F HX  84
GRINNELL*      MOSUNNY   84  70  62 S20G25    29.67F HX  88
KNOXVILLE *    MOSUNNY   82  70  65 S16       29.65F HX  86
MARSHALLTOWN   CLOUDY    82  71  69 S21G30    29.61F HX  86
NEWTON *       MOSUNNY   82  70  65 S16G23    29.65F HX  86
PELLA *        SUNNY     83  70  63 S12G23    29.68F HX  87
PERRY *          N/A     84  76  77 S12G17    29.63F HX  93
$$

IAZ004>006-015-016-023>025-035-036-282300-
   NORTH CENTRAL IOWA

CITY           SKY/WX    TMP DP  RH WIND       PRES   REMARKS
ALGONA *       PTSUNNY   84  70  61 W16       29.60F HX  88
CLARION *        N/A     75  75 100 SW9G15    29.60F
ESTHERVILLE    MOSUNNY   82  64  54 W13G22    29.60F HX  83
FORT DODGE *   CLOUDY    72  68  88 E3        29.61F THUNDER
MASON CITY     CLOUDY    81  70  69 SW17      29.61F HX  84
FOREST CITY *  PTSUNNY   82  63  51 SW13      29.60F HX  83
WEBSTER CITY * CLOUDY    75  64  69 NE12      29.60F
IOWA FALLS *   LGT RAIN  77  71  83 SW13G18   29.64F
$$

IAZ007>011-017>019-026>030-037>042-050>054-066-282300-
   NORTHEAST IOWA

CITY           SKY/WX    TMP DP  RH WIND       PRES   REMARKS
CEDAR RAPIDS   CLOUDY    81  71  71 S17G28    29.68F HX  85
CHARLES CITY * CLOUDY    70  70 100 SW12      29.61F
CLINTON *      PTSUNNY   80  71  74 S20       29.74F HX  84
DECORAH *      CLOUDY    64  63  94 SW9G16    29.64S
DUBUQUE        MOSUNNY   78  69  73 S24G33    29.69F HX  80
MONTICELLO *   CLOUDY    79  72  78 S14G20    29.67F HX  82
OELWEIN *      CLOUDY    79  70  73 SW18G28   29.66R HX  81
WATERLOO       CLOUDY    80  67  64 SW21G28   29.61S THUNDER HX  82
$$

IAZ064-065-067-068-078-282300-
   EAST CENTRAL IOWA

CITY           SKY/WX    TMP DP  RH WIND       PRES   REMARKS
IOWA CITY      PTSUNNY   86  70  58 S16G29    29.70F HX  90
MT. PLEASANT * PTSUNNY   84  67  57 S22G30    29.74F HX  87
MUSCATINE *    PTSUNNY   86  68  54 S22G30    29.72F HX  89
QUAD CITIES    CLOUDY    81  69  67 S10G20    29.74F HX  84
$$

IAZ062-063-075>077-085>089-095>099-282300-
   SOUTHEAST IOWA

CITY           SKY/WX    TMP DP  RH WIND       PRES   REMARKS
BURLINGTON     MOSUNNY   84  70  62 S18G28    29.76F HX  88
FAIRFIELD *    MOSUNNY   86  68  54 S22G30    29.71F HX  89
FORT MADISON * SUNNY     84  72  65 S13G22    29.77F HX  89
KEOKUK *       MOSUNNY   84  70  61 S17G26    29.76F HX  88
OSKALOOSA *      N/A     84  69  60 SW16G28   29.69F HX  88
OTTUMWA        CLOUDY    86  70  58 SW18G30   29.69F HX  90
WASHINGTON *   SUNNY     84  72  65 S18G30    29.72F HX  89
$$

ABBREVIATIONS USED IN REMARKS
   TC - TEMPERATURES IN CELSIUS
  WCI - WIND CHILL INDEX
   HX - HEAT INDEX
  VSB - VISIBILITY
$$





USA.gov is the U.S. government's official web portal to all federal, state and local government web resources and services.